| time (UTC) | temp F | wind direction | speed MPH | gust MPH | rain 1hr in | rain 24hr in | rain mn in | humidity % | barometer mb |
| 20260502163027 | 73 | 81 | 4.0 | 9.0 | 0.00 | 0.00 | 0.00 | 33 | 1022.3 |
| 20260502161528 | 72 | 195 | 1.0 | 9.0 | 0.00 | 0.00 | 0.00 | 35 | 1022.3 |
| 20260502151534 | 68 | 74 | 1.0 | 6.0 | 0.00 | 0.00 | 0.00 | 43 | 1022.0 |
| 20260502123033 | 50 | 0 | 0.0 | 0.0 | 0.00 | 0.00 | 0.00 | 87 | 1020.8 |
| 20260502121527 | 49 | 0 | 0.0 | 0.0 | 0.00 | 0.00 | 0.00 | 86 | 1020.5 |
| 20260502114528 | 49 | 0 | 0.0 | 0.0 | 0.00 | 0.00 | 0.00 | 86 | 1020.0 |
| 20260502113032 | 49 | 0 | 0.0 | 0.0 | 0.00 | 0.00 | 0.00 | 85 | 1019.8 |
| 20260502111529 | 49 | 0 | 0.0 | 0.0 | 0.00 | 0.00 | 0.00 | 85 | 1019.6 |
| 20260502110029 | 48 | 0 | 0.0 | 0.0 | 0.00 | 0.00 | 0.00 | 85 | 1019.6 |
| 20260502104527 | 48 | 0 | 0.0 | 0.0 | 0.00 | 0.00 | 0.00 | 84 | 1019.3 |
| 20260502103030 | 49 | 0 | 0.0 | 0.0 | 0.00 | 0.00 | 0.00 | 84 | 1019.2 |
| 20260502101540 | 49 | 0 | 0.0 | 0.0 | 0.00 | 0.00 | 0.00 | 84 | 1019.1 |
| 20260502091528 | 50 | 0 | 0.0 | 0.0 | 0.00 | 0.00 | 0.00 | 84 | 1019.1 |
| 20260502071529 | 52 | 0 | 0.0 | 0.0 | 0.00 | 0.00 | 0.00 | 82 | 1018.9 |
| 20260502070028 | 52 | 0 | 0.0 | 0.0 | 0.00 | 0.00 | 0.00 | 82 | 1019.0 |
| 20260502064526 | 52 | 0 | 0.0 | 0.0 | 0.00 | 0.00 | 0.00 | 81 | 1019.3 |
| 20260502063031 | 53 | 0 | 0.0 | 0.0 | 0.00 | 0.00 | 0.00 | 81 | 1019.3 |
| 20260502061529 | 53 | 0 | 0.0 | 0.0 | 0.00 | 0.00 | 0.00 | 81 | 1019.2 |
| 20260502060027 | 54 | 0 | 0.0 | 0.0 | 0.00 | 0.00 | 0.00 | 81 | 1019.1 |
| 20260502054528 | 54 | 0 | 0.0 | 0.0 | 0.00 | 0.00 | 0.00 | 80 | 1019.2 |
| 20260502053030 | 55 | 0 | 0.0 | 0.0 | 0.00 | 0.00 | 0.00 | 80 | 1019.1 |
| 20260502051529 | 55 | 0 | 0.0 | 0.0 | 0.00 | 0.00 | 0.00 | 79 | 1019.2 |
| 20260502050037 | 56 | 0 | 0.0 | 0.0 | 0.00 | 0.00 | 0.00 | 78 | 1019.1 |
| 20260502044531 | 56 | 0 | 0.0 | 0.0 | 0.00 | 0.00 | 0.00 | 77 | 1019.0 |
| 20260502043027 | 56 | 0 | 0.0 | 0.0 | 0.00 | 0.00 | 0.00 | 76 | 1019.1 |
| 20260502041537 | 57 | 0 | 0.0 | 0.0 | 0.00 | 0.00 | 0.00 | 76 | 1018.8 |
| 20260502040026 | 58 | 0 | 0.0 | 0.0 | 0.00 | 0.00 | 0.00 | 75 | 1018.9 |
| 20260502034528 | 58 | 0 | 0.0 | 0.0 | 0.00 | 0.00 | 0.00 | 74 | 1018.9 |
| 20260502033031 | 59 | 0 | 0.0 | 0.0 | 0.00 | 0.00 | 0.00 | 74 | 1018.9 |
| 20260502031530 | 59 | 0 | 0.0 | 0.0 | 0.00 | 0.00 | 0.00 | 72 | 1018.7 |
| 20260502030030 | 59 | 0 | 0.0 | 0.0 | 0.00 | 0.00 | 0.00 | 72 | 1018.6 |
| 20260502024529 | 60 | 0 | 0.0 | 0.0 | 0.00 | 0.00 | 0.00 | 72 | 1018.7 |
| 20260502023029 | 60 | 0 | 0.0 | 0.0 | 0.00 | 0.00 | 0.00 | 71 | 1018.5 |
| 20260502021527 | 60 | 0 | 0.0 | 0.0 | 0.00 | 0.00 | 0.00 | 69 | 1018.3 |
| 20260502020030 | 61 | 0 | 0.0 | 3.0 | 0.00 | 0.00 | 0.00 | 68 | 1018.0 |
| 20260502014530 | 61 | 279 | 1.0 | 3.0 | 0.00 | 0.00 | 0.00 | 68 | 1017.6 |
| 20260502013029 | 61 | 0 | 0.0 | 2.0 | 0.00 | 0.00 | 0.00 | 67 | 1017.3 |
| 20260502011527 | 62 | 0 | 0.0 | 2.0 | 0.00 | 0.00 | 0.00 | 67 | 1017.1 |
| 20260502010026 | 62 | 278 | 1.0 | 3.0 | 0.00 | 0.00 | 0.00 | 66 | 1016.9 |
| 20260502004530 | 62 | 0 | 0.0 | 2.0 | 0.00 | 0.00 | 0.00 | 66 | 1016.9 |
| 20260502003027 | 63 | 0 | 1.0 | 3.0 | 0.00 | 0.00 | 0.00 | 63 | 1016.7 |
| 20260502001528 | 63 | 0 | 0.0 | 3.0 | 0.00 | 0.00 | 0.00 | 62 | 1016.5 |
| 20260502000029 | 63 | 257 | 2.0 | 4.0 | 0.00 | 0.00 | 0.00 | 63 | 1016.3 |
| 20260501234528 | 63 | 265 | 2.0 | 6.0 | 0.00 | 0.00 | 0.00 | 62 | 1016.1 |
| 20260501233028 | 63 | 225 | 3.0 | 8.0 | 0.00 | 0.00 | 0.00 | 60 | 1016.0 |
| 20260501231546 | 63 | 181 | 3.0 | 7.0 | 0.00 | 0.00 | 0.00 | 59 | 1015.8 |
| 20260501230027 | 64 | 234 | 1.0 | 7.0 | 0.00 | 0.00 | 0.00 | 59 | 1015.6 |
| 20260501224527 | 64 | 294 | 2.0 | 6.0 | 0.00 | 0.00 | 0.00 | 59 | 1015.6 |
| 20260501223039 | 64 | 236 | 2.0 | 9.0 | 0.00 | 0.00 | 0.00 | 58 | 1015.5 |
| 20260501221529 | 64 | 188 | 3.0 | 9.0 | 0.00 | 0.00 | 0.00 | 57 | 1015.6 |
| 20260501220029 | 63 | 221 | 4.0 | 9.0 | 0.00 | 0.00 | 0.00 | 56 | 1015.7 |
| 20260501214530 | 63 | 234 | 5.0 | 12.0 | 0.00 | 0.00 | 0.00 | 56 | 1015.5 |
| 20260501213033 | 64 | 175 | 6.0 | 15.0 | 0.00 | 0.00 | 0.00 | 55 | 1015.7 |
| 20260501211527 | 64 | 211 | 6.0 | 12.0 | 0.00 | 0.00 | 0.00 | 55 | 1015.6 |
| 20260501210033 | 64 | 110 | 5.0 | 13.0 | 0.00 | 0.00 | 0.00 | 56 | 1016.0 |
| 20260501204533 | 64 | 232 | 6.0 | 14.0 | 0.00 | 0.00 | 0.00 | 55 | 1016.2 |
| 20260501203031 | 64 | 172 | 6.0 | 14.0 | 0.00 | 0.00 | 0.00 | 55 | 1016.1 |
| 20260501201528 | 64 | 231 | 5.0 | 11.0 | 0.00 | 0.00 | 0.00 | 55 | 1016.4 |
| 20260501200027 | 64 | 252 | 5.0 | 12.0 | 0.00 | 0.00 | 0.00 | 54 | 1016.3 |
| 20260501194526 | 64 | 168 | 8.0 | 16.0 | 0.00 | 0.00 | 0.00 | 54 | 1015.6 |
| 20260501193031 | 64 | 185 | 5.0 | 15.0 | 0.00 | 0.00 | 0.00 | 54 | 1015.9 |
| 20260501191532 | 63 | 219 | 7.0 | 18.0 | 0.00 | 0.00 | 0.00 | 53 | 1015.5 |
| 20260501190030 | 63 | 188 | 6.0 | 18.0 | 0.00 | 0.00 | 0.00 | 52 | 1015.8 |
| 20260501184527 | 63 | 173 | 11.0 | 22.0 | 0.00 | 0.00 | 0.00 | 52 | 1015.9 |
| 20260501183032 | 63 | 211 | 8.0 | 19.0 | 0.00 | 0.00 | 0.00 | 57 | 1016.3 |
| 20260501181534 | 64 | 226 | 9.0 | 21.0 | 0.00 | 0.00 | 0.00 | 53 | 1016.5 |
| 20260501180029 | 64 | 221 | 8.0 | 16.0 | 0.00 | 0.00 | 0.00 | 58 | 1017.0 |
| 20260501174535 | 63 | 206 | 8.0 | 16.0 | 0.00 | 0.01 | 0.00 | 57 | 1017.0 |
| 20260501173026 | 63 | 218 | 8.0 | 16.0 | 0.00 | 0.01 | 0.00 | 57 | 1017.3 |
| 20260501171533 | 64 | 222 | 6.0 | 17.0 | 0.00 | 0.01 | 0.00 | 58 | 1017.5 |